• Join FlightAware (Why Join?)
  • Login
  • US Flag GB Flag 
15:51 EST


 

Airport Tracker/Info


-or-


 

Live Flight TrackerFlight Track Log ✈ N591CA ✈ 09-Jul-2013 ✈ KCGF - KCGF

Flight Track Log - Related Links

Times and Time Zones

All times are in EDT time to prevent confusion due to time zone crossing. See the N591CA flight status page for this flight to view local times or setup timezone preferences in your user account.

Time Position Orientation Groundspeed Altitude Reporting Facility
EDT Latitude Longitude Course Direction KTS MPH feet Rate Location/Type
14:32 41.5581 -81.5017 175° South 67 77 1,400  Level Cleveland Center
14:33 41.5311 -81.4986 175° South 113 130 2,100 720 Climbing Cleveland Center
14:34 41.5231 -81.4650 108° East 116 133 2,800 420 Climbing Cleveland Center
14:35 41.5233 -81.4042 90° East 143 165 3,000 60 Climbing Cleveland Center
14:36 41.5217 -81.3569 93° East 149 171 3,000  Level Cleveland Center
14:38 41.5181 -81.2847 94° East 143 165 3,000  Level Cleveland Center
14:38 41.5183 -81.2458 89° East 130 150 3,000 -60 Level Cleveland Center
14:40 41.5164 -81.1878 93° East 127 146 2,900 -60 Descending Cleveland Center
14:40 41.5167 -81.1544 89° East 122 140 2,900  Level Cleveland Center
14:41 41.5394 -81.1767 324° Northwest 114 131 3,000  Climbing Cleveland Center
14:42 41.5622 -81.1964 327° Northwest 125 144 3,000  Level Cleveland Center
14:44 41.5642 -81.2214 276° West 107 123 3,100  Climbing Cleveland Center
14:45 41.5353 -81.1961 147° Southeast 141 162 3,000 -120 Descending Cleveland Center
14:45 41.5167 -81.1656 129° Southeast 121 139 2,900 -360 Descending Cleveland Center
14:46 41.4939 -81.1347 135° Southeast 120 138 2,400 -480 Descending Cleveland Center
14:48 41.4794 -81.1069 125° Southeast 83 96 1,900 -300 Descending Cleveland Center
14:49 41.4586 -81.0819 138° Southeast 85 98 1,800 240 Descending Cleveland Center
14:50 41.4378 -81.0594 141° Southeast 91 105 2,400 600 Climbing Cleveland Center
14:51 41.4314 -81.0761 243° Southwest 108 124 3,200 300 Climbing Cleveland Center
14:52 41.4606 -81.1067 322° Northwest 141 162 3,100 -120 Descending Cleveland Center
14:53 41.4875 -81.1375 319° Northwest 129 148 3,000 -60 Descending Cleveland Center
14:54 41.5206 -81.1711 323° Northwest 123 142 3,000  Level Cleveland Center
14:55 41.5478 -81.1714 360° North 121 139 3,000  Level Cleveland Center
14:56 41.5664 -81.1908 322° Northwest 109 125 3,000  Level Cleveland Center
14:56 41.5517 -81.2131 228° Southwest 98 113 3,000  Level Cleveland Center
14:58 41.5269 -81.1822 137° Southeast 116 133 3,000  Level Cleveland Center
14:59 41.5144 -81.1461 115° Southeast 118 136 3,000  Level Cleveland Center
15:00 41.5353 -81.1517 349° North 114 131 3,000  Level Cleveland Center
15:01 41.5478 -81.1881 295° West 98 113 3,000  Level Cleveland Center
15:02 41.5289 -81.1850 173° South 113 130 3,000  Level Cleveland Center
15:03 41.5125 -81.1489 121° Southeast 120 138 3,000  Level Cleveland Center
15:04 41.5292 -81.1544 346° North 110 127 3,000 -120 Level Cleveland Center
15:05 41.5061 -81.1764 215° Southwest 115 132 2,800 -60 Descending Cleveland Center
15:06 41.4769 -81.1706 171° South 103 119 2,900 120 Climbing Cleveland Center
15:07 41.4478 -81.1786 192° South 91 105 3,100 60 Climbing Cleveland Center
15:08 41.4603 -81.1483 61° Northeast 132 152 3,100  Level Cleveland Center